Vorticity
5 5 12 5 8 6 5 7 9 2 6 4 5 12 10 7 7 3 8 4 6 8 13 5 3 4 5 3 0 1 6 7 7 5 10 5 8 9 12 5 1 10 4 6
4 2 7 7 6 7 9 8 13 5 1 4 9 6 7 6 2 6 1 4 3 9 5 6 7 7 4 5 4 3 6 8 7 8 4 9 4 13 -2 14 -4 6 11 10
8 0 3 5 6 5 7 4 7 11 7 7 3 0 5 12 5 2 2 3 2 3 4 1 4 5 3 6 7 6 5 10 8 -0 14 19 -0 -3 15 1 2 37 54 50
1 -1 2 3 2 9 5 7 2 11 11 2 4 0 -2 5 7 3 2 4 4 6 6 4 7 3 8 8 5 7 5 5 6 5 8 6 17 19 -3 -8 63 15 13 8
-3 -4 -4 4 -6 6 4 5 4 4 5 3 3 5 -2 4 4 5 2 3 4 7 2 6 4 5 9 6 9 4 6 5 5 7 8 10 9 13 18 35 22 23 27 27
6 4 3 3 4 1 4 7 9 7 6 3 4 11 5 4 3 -1 4 2 5 4 7 11 2 3 6 7 5 6 7 5 6 7 9 5 -0 0 -2 53 2 34 21 -7
9 10 11 8 5 2 4 4 7 8 5 8 4 -1 4 4 5 4 4 6 7 5 7 4 3 6 10 5 6 7 6 8 6 9 6 2 1 6 -4 45 11 24 5 14
9 6 15 19 13 9 3 -3 1 7 9 2 1 2 2 6 6 4 6 8 7 4 7 6 8 11 7 5 5 8 8 8 7 5 4 6 1 7 10 37 15 24 13 10
8 13 0 -5 9 14 10 7 15 18 10 10 5 7 10 5 15 14 12 3 2 7 9 10 14 7 5 4 4 10 7 8 7 7 10 7 3 8 3 32 3 30 12 1
9 13 5 5 9 3 9 14 10 5 9 9 9 17 7 -7 7 13 7 2 6 11 10 10 9 6 7 4 8 5 7 8 8 7 8 3 2 7 10 31 11 22 -2 15
8 18 16 8 5 9 11 -0 -3 -2 11 9 12 11 18 7 10 6 4 4 9 7 8 5 10 7 4 4 4 7 7 10 7 7 6 1 1 7 8 24 1 31 -1 -1
39 23 3 8 14 10 10 11 10 4 4 -0 -1 9 12 3 8 9 13 6 9 7 2 5 10 4 3 4 6 6 9 10 11 8 5 4 5 8 5 18 12 29 12 -9
-10 6 4 19 31 21 18 18 10 6 7 9 10 1 7 -2 8 7 8 2 7 6 6 11 8 6 5 4 6 8 11 11 10 5 4 5 4 3 1 7 24 -1 29 -1
20 14 31 2 -38 -10 -13 2 9 8 10 -2 8 10 10 10 13 13 10 8 14 7 10 11 5 5 4 7 8 10 11 11 6 6 8 4 3 3 6 5 15 11 30 15
-3 16 14 -1 17 23 38 -2 25 14 19 21 15 5 8 5 12 10 10 13 13 15 13 7 5 4 7 9 10 9 11 8 7 8 5 4 4 5 5 1 11 23 11 26
6 3 24 -13 22 4 14 16 -17 25 17 23 27 10 11 7 12 18 15 18 15 17 8 4 4 6 10 9 10 10 7 8 7 8 5 4 5 6 3 6 13 20 7 30
-1 34 23 0 -25 36 16 40 23 3 -4 -15 23 19 22 10 0 6 10 14 11 7 9 5 9 9 10 10 10 6 9 10 7 6 6 7 7 7 2 7 5 15 14 17
13 -7 14 2 3 -0 -12 3 -2 8 3 6 -29 -26 36 24 15 10 9 18 18 13 10 9 10 14 11 9 9 9 9 6 4 7 9 8 8 5 3 7 4 7 18 7
11 -0 -2 -5 1 13 14 16 18 18 20 10 17 4 -2 -18 22 19 11 6 7 10 12 12 11 8 6 9 8 7 7 5 9 8 8 8 6 4 4 4 5 12 13 8
13 16 9 19 10 10 20 19 11 15 10 20 16 6 8 24 3 13 14 10 10 11 15 14 9 6 9 6 8 7 7 6 7 7 6 6 4 5 4 6 7 13 14 17
15 17 7 12 6 8 8 11 5 13 23 14 13 18 10 9 13 11 17 14 13 12 10 9 7 8 10 5 6 5 6 6 6 5 5 4 6 7 10 10 11 14 19 15
8 7 7 19 -7 17 4 -12 6 13 8 12 15 9 19 9 7 9 9 11 13 14 11 11 8 5 6 3 5 6 7 8 10 15 20 22 28 31 31 32 31 35 20 12
11 14 21 3 9 5 13 10 5 2 15 16 19 14 5 6 3 8 15 14 13 10 8 6 3 3 7 9 12 21 23 28 30 31 32 35 33 27 28 23 22 23 14 9
18 11 5 10 9 10 10 5 11 -0 19 21 17 7 10 6 10 12 13 12 5 2 3 7 9 14 20 23 26 26 22 22 20 21 21 22 22 21 15 24 9 27 12 11
8 15 0 3 9 18 17 8 20 24 26 11 13 13 8 19 13 12 6 2 6 9 13 19 21 19 19 22 19 12 13 19 19 7 20 19 17 14 17 15 15 23 17 16
4 -5 -4 11 4 14 16 26 15 40 18 12 3 -5 23 10 3 4 7 11 16 18 18 19 18 19 16 10 2 10 5 7 6 18 19 28 11 7 15 14 20 14 17 20
Height
5755 5760 5762 5758 5760 5761 5760 5762 5762 5763 5762 5763 5765 5767 5765 5762 5762 5763 5764 5764 5763 5763 5761 5759 5757 5755 5752 5751 5748 5745 5743 5742 5741 5739 5737 5734 5730 5727 5723 5719 5717 5714 5712 5710
5752 5753 5750 5752 5755 5755 5756 5755 5758 5756 5756 5758 5758 5760 5758 5758 5757 5757 5756 5756 5756 5755 5754 5750 5748 5746 5743 5741 5739 5736 5734 5732 5730 5729 5726 5723 5720 5716 5710 5705 5699 5692 5687 5685
5748 5749 5744 5745 5746 5748 5751 5750 5750 5750 5749 5750 5751 5751 5753 5754 5753 5749 5748 5748 5747 5746 5744 5741 5739 5738 5735 5732 5730 5727 5725 5723 5720 5717 5714 5710 5705 5700 5694 5687 5678 5666 5658 5654
5737 5743 5743 5738 5738 5739 5742 5743 5742 5741 5742 5742 5742 5743 5743 5747 5745 5742 5742 5741 5738 5736 5735 5732 5730 5728 5726 5723 5720 5717 5714 5711 5708 5705 5702 5697 5692 5687 5677 5668 5655 5648 5642 5638
5729 5729 5733 5734 5734 5731 5735 5733 5733 5733 5734 5734 5733 5732 5738 5737 5736 5737 5733 5730 5727 5727 5726 5724 5722 5718 5716 5712 5708 5706 5703 5699 5696 5692 5687 5683 5678 5670 5660 5649 5639 5632 5628 5624
5718 5718 5720 5725 5726 5724 5723 5723 5723 5723 5723 5722 5724 5726 5731 5728 5729 5727 5725 5722 5720 5719 5717 5716 5712 5707 5704 5700 5697 5694 5690 5687 5684 5679 5673 5669 5664 5655 5646 5632 5623 5618 5615 5612
5706 5710 5711 5711 5712 5714 5714 5714 5714 5713 5711 5714 5715 5715 5721 5717 5718 5717 5714 5712 5710 5708 5706 5703 5700 5697 5693 5689 5686 5683 5680 5677 5672 5667 5661 5656 5649 5640 5630 5618 5610 5604 5601 5597
5691 5696 5699 5703 5702 5704 5704 5703 5702 5701 5701 5703 5701 5702 5708 5710 5708 5706 5705 5702 5699 5696 5694 5692 5690 5687 5683 5679 5676 5674 5671 5666 5661 5656 5650 5644 5636 5626 5616 5606 5599 5591 5586 5579
5677 5681 5685 5689 5690 5690 5692 5690 5693 5689 5687 5687 5689 5693 5698 5698 5696 5695 5692 5689 5687 5684 5683 5681 5680 5676 5672 5667 5666 5664 5660 5655 5650 5645 5639 5632 5624 5614 5604 5593 5585 5577 5571 5564
5663 5665 5670 5674 5675 5676 5677 5681 5678 5677 5676 5675 5680 5682 5684 5686 5684 5683 5681 5678 5676 5674 5672 5671 5669 5664 5661 5657 5655 5653 5648 5644 5638 5632 5627 5621 5614 5604 5593 5581 5574 5564 5557 5549
5650 5651 5657 5657 5659 5664 5668 5668 5667 5668 5664 5663 5666 5671 5675 5675 5672 5670 5670 5667 5666 5663 5661 5660 5658 5653 5649 5646 5644 5641 5638 5633 5625 5619 5614 5610 5603 5593 5583 5572 5564 5555 5547 5538
5640 5637 5640 5645 5649 5650 5650 5652 5652 5652 5654 5655 5654 5662 5662 5663 5661 5660 5658 5656 5654 5652 5650 5649 5646 5641 5637 5636 5633 5630 5626 5620 5615 5609 5603 5598 5591 5584 5575 5565 5555 5546 5538 5529
5627 5624 5627 5628 5634 5634 5635 5639 5640 5641 5642 5645 5643 5653 5652 5651 5650 5647 5645 5643 5641 5639 5637 5636 5633 5630 5628 5626 5621 5617 5614 5609 5603 5598 5593 5587 5581 5575 5566 5557 5548 5541 5532 5524
5611 5613 5614 5617 5623 5625 5626 5632 5629 5627 5629 5635 5633 5635 5638 5638 5636 5634 5632 5631 5628 5627 5625 5625 5622 5618 5616 5614 5610 5606 5602 5598 5593 5589 5584 5577 5571 5564 5557 5551 5542 5533 5525 5518
5599 5600 5603 5608 5611 5612 5615 5620 5619 5618 5624 5617 5626 5618 5624 5625 5623 5621 5620 5619 5616 5615 5614 5612 5609 5606 5604 5602 5598 5594 5590 5586 5582 5577 5573 5567 5561 5554 5548 5541 5534 5526 5519 5511
5588 5589 5594 5595 5599 5600 5601 5605 5608 5608 5610 5608 5607 5611 5611 5610 5609 5609 5608 5606 5605 5603 5601 5599 5597 5595 5592 5589 5586 5582 5578 5574 5570 5565 5561 5557 5551 5545 5539 5532 5526 5519 5514 5506
5578 5581 5584 5586 5588 5588 5587 5601 5599 5600 5599 5598 5598 5603 5599 5597 5598 5598 5596 5595 5593 5590 5589 5588 5585 5582 5580 5577 5574 5570 5566 5562 5557 5553 5550 5546 5540 5535 5530 5524 5518 5513 5508 5502
5565 5572 5573 5575 5579 5574 5586 5587 5586 5585 5590 5590 5592 5593 5589 5588 5588 5586 5585 5584 5581 5579 5577 5576 5573 5571 5568 5566 5562 5557 5554 5549 5545 5541 5539 5534 5528 5524 5519 5515 5510 5505 5500 5496
5556 5559 5563 5563 5567 5571 5577 5580 5577 5574 5579 5580 5582 5582 5582 5581 5578 5577 5574 5573 5570 5568 5567 5565 5562 5559 5556 5554 5549 5544 5542 5538 5533 5529 5525 5521 5516 5512 5508 5504 5500 5496 5492 5488
5548 5553 5557 5558 5560 5563 5570 5569 5566 5565 5569 5571 5570 5571 5572 5571 5568 5568 5565 5562 5559 5557 5556 5554 5551 5548 5545 5542 5537 5533 5531 5525 5520 5515 5510 5506 5503 5498 5494 5491 5488 5485 5483 5479
5541 5545 5549 5552 5554 5558 5562 5560 5559 5558 5563 5557 5557 5558 5561 5561 5559 5558 5557 5554 5550 5547 5545 5543 5540 5538 5535 5533 5527 5523 5518 5511 5505 5499 5494 5490 5487 5482 5478 5476 5474 5473 5472 5470
5536 5539 5542 5546 5549 5552 5553 5553 5553 5552 5550 5549 5550 5550 5551 5550 5548 5549 5547 5545 5542 5538 5536 5536 5533 5530 5526 5520 5514 5509 5503 5497 5490 5483 5478 5473 5469 5464 5460 5459 5458 5459 5460 5459
5530 5534 5538 5540 5542 5543 5543 5544 5544 5543 5541 5541 5541 5541 5541 5541 5540 5539 5539 5537 5535 5533 5531 5527 5523 5520 5513 5506 5501 5495 5489 5483 5476 5469 5463 5459 5455 5451 5448 5446 5445 5446 5448 5449
5523 5526 5530 5533 5535 5534 5535 5536 5534 5534 5533 5533 5533 5534 5533 5533 5531 5532 5530 5529 5528 5524 5520 5516 5511 5504 5499 5494 5489 5483 5478 5472 5466 5460 5455 5451 5446 5443 5440 5437 5437 5437 5438 5440
5517 5521 5523 5526 5528 5527 5527 5527 5526 5526 5526 5527 5526 5527 5528 5526 5523 5525 5525 5522 5519 5514 5510 5505 5499 5494 5489 5484 5480 5476 5471 5466 5461 5455 5450 5445 5441 5438 5435 5433 5431 5430 5431 5431
5512 5516 5518 5519 5520 5520 5521 5519 5519 5520 5520 5520 5520 5522 5522 5520 5519 5519 5516 5513 5510 5505 5500 5495 5491 5486 5482 5478 5474 5470 5467 5462 5456 5449 5444 5440 5437 5434 5431 5428 5426 5425 5424 5425